Language: 


Des rapports , des résumés tant et plus, au choix de chacun....


Données statistiques de la station
Quotidien Rapport Juillet 29, 2017 Unités:  Métrique    Anglais   les deux
« Précédent Jour
Suivant Jour »
Quotidien Hebdomadaire Mensuel Annuel Actuel
  Haut: Bas: Moyen:
Température: 26.6 °C 0.0 °C 20.7 °C
Pt de rosée: 21.0 °C 14.0 °C 16.8 °C
Humidité: 95 % 0 % 77 %
Vitesse du vent: 19.8 km/h 0.0 km/h 7.4 km/h
Rafales: 27.7 km/h - -
Vent:- - SW
Pression: 1011.1 hPa 0.0 hPa -
Précipitation: 0.0 mm    
Historical Graphs
 
 
Données statistiques pour Juillet 29, 2017
Heure Température Point de rosée Pression Vent Vitesse du vent Refales Humidité Pluie (taux horaire)
00:03 17.2 °C 15.0 °C 1011.1 hPa Calm   1.8 km/h 84 % 0.0 mm
00:08 17.3 °C 15.0 °C 1011.1 hPa Calm   2.1 km/h 84 % 0.0 mm
00:13 17.3 °C 15.0 °C 1011.1 hPa Calm   4.3 km/h 84 % 0.0 mm
00:18 17.3 °C 15.0 °C 1011.1 hPa Calm   5.0 km/h 84 % 0.0 mm
00:24 17.5 °C 15.0 °C 1011.1 hPa SW 1.8 km/h 9.0 km/h 84 % 0.0 mm
00:29 17.7 °C 15.0 °C 1011.1 hPa South 4.3 km/h 9.0 km/h 83 % 0.0 mm
00:34 17.9 °C 15.0 °C 1011.1 hPa SSW 1.4 km/h 9.7 km/h 82 % 0.0 mm
00:39 18.1 °C 15.0 °C 1011.1 hPa SSW 4.0 km/h 11.1 km/h 81 % 0.0 mm
00:44 18.3 °C 15.0 °C 1011.1 hPa SSW 10.5 km/h 11.9 km/h 80 % 0.0 mm
00:49 18.3 °C 15.0 °C 1011.1 hPa WSW 10.5 km/h 12.6 km/h 80 % 0.0 mm
00:54 18.5 °C 15.0 °C 1011.1 hPa SSE 6.1 km/h 14.0 km/h 79 % 0.0 mm
00:59 18.6 °C 15.0 °C 1011.1 hPa SSW 8.7 km/h 16.6 km/h 78 % 0.0 mm
01:04 18.7 °C 15.0 °C 1011.1 hPa SSW 9.0 km/h 16.6 km/h 77 % 0.0 mm
01:09 18.7 °C 15.0 °C 1011.1 hPa WSW 10.5 km/h 16.9 km/h 77 % 0.0 mm
01:14 18.8 °C 14.0 °C 1011.1 hPa SSW 13.7 km/h 16.9 km/h 76 % 0.0 mm
01:19 18.8 °C 14.0 °C 1011.1 hPa SW 9.3 km/h 16.3 km/h 76 % 0.0 mm
01:24 18.9 °C 15.0 °C 1011.1 hPa SW 6.1 km/h 16.3 km/h 76 % 0.0 mm
01:29 18.9 °C 15.0 °C 1011.1 hPa SW 9.3 km/h 15.4 km/h 76 % 0.0 mm
01:34 19.0 °C 15.0 °C 1011.1 hPa SSW 7.9 km/h 15.4 km/h 75 % 0.0 mm
01:39 19.1 °C 14.0 °C 1011.1 hPa SW 7.9 km/h 17.7 km/h 74 % 0.0 mm
01:44 19.1 °C 15.0 °C 1010.0 hPa WSW 14.0 km/h 17.7 km/h 75 % 0.0 mm
01:49 19.1 °C 15.0 °C 1010.0 hPa SW 9.7 km/h 14.0 km/h 75 % 0.0 mm
01:54 19.2 °C 15.0 °C 1010.0 hPa SW 10.5 km/h 17.7 km/h 74 % 0.0 mm
01:59 19.2 °C 15.0 °C 1010.0 hPa WSW 15.1 km/h 17.7 km/h 74 % 0.0 mm
02:04 19.2 °C 14.0 °C 1010.0 hPa SW 6.4 km/h 17.7 km/h 73 % 0.0 mm
02:09 19.2 °C 14.0 °C 1010.0 hPa SSW 14.8 km/h 20.1 km/h 73 % 0.0 mm
02:14 19.2 °C 14.0 °C 1010.0 hPa SSW 6.9 km/h 20.1 km/h 73 % 0.0 mm
02:19 19.1 °C 14.0 °C 1010.0 hPa WSW 9.7 km/h 16.6 km/h 73 % 0.0 mm
02:24 19.1 °C 14.0 °C 1010.0 hPa SW 16.6 km/h 16.6 km/h 73 % 0.0 mm
02:29 19.2 °C 14.0 °C 1010.0 hPa SW 9.7 km/h 16.6 km/h 73 % 0.0 mm
02:34 19.2 °C 14.0 °C 1010.0 hPa SSW 9.7 km/h 16.6 km/h 73 % 0.0 mm
02:39 19.1 °C 14.0 °C 1010.0 hPa SSW 6.4 km/h 16.6 km/h 73 % 0.0 mm
02:44 19.1 °C 14.0 °C 1010.0 hPa SW 10.1 km/h 14.0 km/h 73 % 0.0 mm
02:49 19.1 °C 14.0 °C 1010.0 hPa SSW 9.0 km/h 17.7 km/h 72 % 0.0 mm
02:54 19.0 °C 14.0 °C 1010.0 hPa WSW 13.0 km/h 17.7 km/h 72 % 0.0 mm
03:04 18.9 °C 14.0 °C 1010.0 hPa SSW 12.6 km/h 15.4 km/h 73 % 0.0 mm
03:09 18.8 °C 14.0 °C 1010.0 hPa WSW 9.3 km/h 14.3 km/h 73 % 0.0 mm
03:14 18.8 °C 14.0 °C 1010.0 hPa SW 10.1 km/h 17.7 km/h 73 % 0.0 mm
03:19 18.7 °C 14.0 °C 1010.0 hPa SSW 10.5 km/h 17.7 km/h 73 % 0.0 mm
03:24 18.7 °C 14.0 °C 1010.0 hPa SSW 6.4 km/h 15.8 km/h 74 % 0.0 mm
03:29 18.8 °C 14.0 °C 1010.0 hPa WSW 13.7 km/h 16.9 km/h 74 % 0.0 mm
03:34 18.9 °C 14.0 °C 1010.0 hPa SW 15.4 km/h 16.9 km/h 73 % 0.0 mm
03:38 18.9 °C 14.0 °C 1010.0 hPa SW 9.0 km/h 16.9 km/h 73 % 0.0 mm
03:43 18.9 °C 14.0 °C 1010.0 hPa SSW 5.0 km/h 16.9 km/h 73 % 0.0 mm
03:48 18.9 °C 14.0 °C 1010.0 hPa SW 11.9 km/h 19.8 km/h 73 % 0.0 mm
03:53 18.8 °C 14.0 °C 1010.0 hPa WSW 9.0 km/h 19.8 km/h 73 % 0.0 mm
03:58 18.8 °C 14.0 °C 1009.0 hPa SW 1.4 km/h 19.5 km/h 74 % 0.0 mm
04:04 18.8 °C 14.0 °C 1009.0 hPa South 11.9 km/h 18.3 km/h 74 % 0.0 mm
04:09 18.9 °C 14.0 °C 1009.0 hPa WSW 5.8 km/h 18.3 km/h 73 % 0.0 mm
04:14 18.9 °C 14.0 °C 1010.0 hPa SW 12.2 km/h 15.8 km/h 73 % 0.0 mm
04:19 18.8 °C 14.0 °C 1010.0 hPa SSW 10.5 km/h 15.8 km/h 73 % 0.0 mm
04:24 18.9 °C 14.0 °C 1010.0 hPa WSW 10.5 km/h 15.1 km/h 73 % 0.0 mm
04:29 18.9 °C 14.0 °C 1009.0 hPa WSW 9.0 km/h 19.1 km/h 73 % 0.0 mm
04:34 18.9 °C 14.0 °C 1009.0 hPa SSW 11.6 km/h 19.1 km/h 73 % 0.0 mm
04:39 18.8 °C 14.0 °C 1009.0 hPa SW 9.0 km/h 15.4 km/h 73 % 0.0 mm
04:44 18.8 °C 14.0 °C 1009.0 hPa SW 9.7 km/h 15.4 km/h 74 % 0.0 mm
04:49 18.8 °C 14.0 °C 1009.0 hPa SSW 5.0 km/h 14.0 km/h 74 % 0.0 mm
04:54 18.8 °C 14.0 °C 1009.0 hPa SW 11.6 km/h 12.6 km/h 74 % 0.0 mm
04:59 18.8 °C 14.0 °C 1009.0 hPa SSW 9.3 km/h 14.0 km/h 74 % 0.0 mm
05:04 18.8 °C 14.0 °C 1009.0 hPa SW 16.6 km/h 16.6 km/h 75 % 0.0 mm
05:09 18.7 °C 14.0 °C 1009.0 hPa SSW 12.6 km/h 16.6 km/h 75 % 0.0 mm
05:14 18.8 °C 14.0 °C 1009.0 hPa SSW 5.5 km/h 16.6 km/h 75 % 0.0 mm
05:19 18.8 °C 14.0 °C 1009.0 hPa WSW 7.9 km/h 15.8 km/h 75 % 0.0 mm
05:24 18.7 °C 14.0 °C 1009.0 hPa West 10.1 km/h 15.8 km/h 75 % 0.0 mm
05:29 18.7 °C 14.0 °C 1009.0 hPa SW 10.1 km/h 15.4 km/h 76 % 0.0 mm
05:34 18.7 °C 14.0 °C 1009.0 hPa Calm   15.8 km/h 76 % 0.0 mm
05:39 18.7 °C 14.0 °C 1009.0 hPa SW 11.9 km/h 15.8 km/h 76 % 0.0 mm
05:44 18.7 °C 14.0 °C 1009.0 hPa WSW 9.7 km/h 16.6 km/h 76 % 0.0 mm
05:50 18.7 °C 15.0 °C 1009.0 hPa SSW 13.0 km/h 17.2 km/h 77 % 0.0 mm
05:55 18.7 °C 15.0 °C 1009.0 hPa WSW 14.0 km/h 21.2 km/h 78 % 0.0 mm
06:00 18.7 °C 15.0 °C 1010.0 hPa WSW 2.1 km/h 21.2 km/h 78 % 0.0 mm
06:05 18.7 °C 15.0 °C 1010.0 hPa SW 9.7 km/h 18.0 km/h 78 % 0.0 mm
06:10 18.7 °C 15.0 °C 1010.0 hPa WSW 9.7 km/h 16.6 km/h 78 % 0.0 mm
06:15 18.7 °C 15.0 °C 1010.0 hPa WSW 11.6 km/h 13.7 km/h 79 % 0.0 mm
06:20 18.7 °C 15.0 °C 1010.0 hPa SW 11.9 km/h 14.0 km/h 79 % 0.0 mm
06:25 18.7 °C 15.0 °C 1010.0 hPa WSW 14.0 km/h 17.2 km/h 79 % 0.0 mm
06:30 18.7 °C 15.0 °C 1010.0 hPa SSW 9.7 km/h 17.2 km/h 79 % 0.0 mm
06:35 18.8 °C 15.0 °C 1010.0 hPa SW 10.5 km/h 15.4 km/h 79 % 0.0 mm
06:40 18.7 °C 15.0 °C 1010.0 hPa SSW 15.4 km/h 15.4 km/h 79 % 0.0 mm
06:45 18.7 °C 15.0 °C 1010.0 hPa West 8.7 km/h 17.7 km/h 79 % 0.0 mm
06:50 18.7 °C 15.0 °C 1010.0 hPa WSW 13.7 km/h 17.7 km/h 79 % 0.0 mm
06:55 18.7 °C 15.0 °C 1010.0 hPa SW 15.8 km/h 18.0 km/h 80 % 0.0 mm
07:00 18.7 °C 15.0 °C 1010.0 hPa SSW 10.1 km/h 18.0 km/h 80 % 0.0 mm
07:05 18.7 °C 15.0 °C 1010.0 hPa SSW 8.7 km/h 19.5 km/h 80 % 0.0 mm
07:10 18.7 °C 15.0 °C 1010.0 hPa WSW 9.0 km/h 19.5 km/h 80 % 0.0 mm
07:15 18.7 °C 15.0 °C 1010.0 hPa SW 14.0 km/h 17.2 km/h 80 % 0.0 mm
07:20 18.7 °C 15.0 °C 1010.0 hPa WSW 14.0 km/h 18.0 km/h 80 % 0.0 mm
07:25 18.6 °C 15.0 °C 1010.0 hPa WSW 9.3 km/h 18.0 km/h 80 % 0.0 mm
07:30 18.6 °C 15.0 °C 1010.0 hPa WSW 9.0 km/h 19.8 km/h 81 % 0.0 mm
07:35 18.7 °C 15.0 °C 1010.0 hPa WSW 13.7 km/h 19.8 km/h 81 % 0.0 mm
07:40 18.7 °C 15.0 °C 1010.0 hPa SW 9.0 km/h 16.6 km/h 81 % 0.0 mm
07:45 18.8 °C 15.0 °C 1010.0 hPa SW 4.7 km/h 16.6 km/h 81 % 0.0 mm
07:50 18.9 °C 16.0 °C 1010.0 hPa SSW 9.3 km/h 16.9 km/h 81 % 0.0 mm
07:56 18.9 °C 16.0 °C 1011.1 hPa WSW 9.3 km/h 16.9 km/h 81 % 0.0 mm
08:01 18.8 °C 15.0 °C 1011.1 hPa SSW 6.9 km/h 12.2 km/h 81 % 0.0 mm
08:06 18.9 °C 16.0 °C 1011.1 hPa WSW 9.3 km/h 16.3 km/h 81 % 0.0 mm
08:11 18.9 °C 16.0 °C 1011.1 hPa WSW 7.6 km/h 16.3 km/h 81 % 0.0 mm
08:16 19.0 °C 16.0 °C 1011.1 hPa SW 10.1 km/h 15.4 km/h 81 % 0.0 mm
08:21 19.0 °C 16.0 °C 1011.1 hPa WSW 10.5 km/h 19.8 km/h 80 % 0.0 mm
08:26 19.2 °C 16.0 °C 1011.1 hPa WSW 14.3 km/h 19.8 km/h 81 % 0.0 mm
08:31 19.2 °C 16.0 °C 1011.1 hPa WSW 10.1 km/h 21.2 km/h 81 % 0.0 mm
08:36 19.3 °C 16.0 °C 1011.1 hPa SW 12.6 km/h 21.2 km/h 81 % 0.0 mm
08:41 19.5 °C 16.0 °C 1011.1 hPa SW 15.8 km/h 21.2 km/h 81 % 0.0 mm
08:46 19.5 °C 16.0 °C 1011.1 hPa SSW 9.3 km/h 17.7 km/h 80 % 0.0 mm
08:51 19.7 °C 16.0 °C 1011.1 hPa SSW 14.0 km/h 17.7 km/h 80 % 0.0 mm
08:56 19.8 °C 16.0 °C 1011.1 hPa SW 10.1 km/h 16.6 km/h 80 % 0.0 mm
10:13 0.0 °C 17.0 °C 0.0 hPa SSW 11.9 km/h 11.9 km/h 0 % 0.0 mm
10:18 21.2 °C 17.0 °C 1011.1 hPa WSW 12.2 km/h 27.7 km/h 77 % 0.0 mm
10:23 21.4 °C 17.0 °C 1011.1 hPa WSW 19.5 km/h 27.7 km/h 77 % 0.0 mm
10:28 21.8 °C 17.0 °C 1011.1 hPa WSW 13.7 km/h 20.9 km/h 76 % 0.0 mm
10:33 21.8 °C 17.0 °C 1011.1 hPa West 17.7 km/h 21.2 km/h 75 % 0.0 mm
10:38 21.8 °C 17.0 °C 1011.1 hPa WSW 19.5 km/h 24.8 km/h 75 % 0.0 mm
10:43 21.7 °C 17.0 °C 1011.1 hPa WSW 19.1 km/h 24.8 km/h 75 % 0.0 mm
10:49 21.9 °C 18.0 °C 1011.1 hPa South 19.8 km/h 24.8 km/h 75 % 0.0 mm
10:54 22.1 °C 18.0 °C 1011.1 hPa SSW 14.8 km/h 24.8 km/h 75 % 0.0 mm
10:59 22.1 °C 17.0 °C 1011.1 hPa WSW 15.8 km/h 23.8 km/h 74 % 0.0 mm
11:04 22.4 °C 18.0 °C 1011.1 hPa West 10.8 km/h 21.2 km/h 74 % 0.0 mm
11:09 22.2 °C 17.0 °C 1011.1 hPa SW 9.0 km/h 20.1 km/h 73 % 0.0 mm
11:14 22.0 °C 17.0 °C 1011.1 hPa SW 15.4 km/h 24.8 km/h 73 % 0.0 mm
11:19 22.4 °C 17.0 °C 1011.1 hPa SW 16.3 km/h 27.0 km/h 73 % 0.0 mm
11:24 22.5 °C 18.0 °C 1011.1 hPa West 15.4 km/h 27.0 km/h 73 % 0.0 mm
11:29 22.5 °C 18.0 °C 1010.0 hPa WSW 14.8 km/h 20.9 km/h 72 % 0.0 mm
11:34 22.4 °C 17.0 °C 1010.0 hPa WSW 13.0 km/h 17.7 km/h 72 % 0.0 mm
11:39 22.1 °C 17.0 °C 1010.0 hPa SW 9.7 km/h 23.3 km/h 72 % 0.0 mm
11:44 21.8 °C 17.0 °C 1011.1 hPa SW 11.9 km/h 23.3 km/h 73 % 0.0 mm
11:49 21.7 °C 17.0 °C 1011.1 hPa SSW 10.1 km/h 18.3 km/h 74 % 0.0 mm
11:54 21.7 °C 17.0 °C 1011.1 hPa SW 15.1 km/h 20.1 km/h 74 % 0.0 mm
11:59 21.9 °C 18.0 °C 1011.1 hPa South 13.0 km/h 20.1 km/h 75 % 0.0 mm
12:04 22.0 °C 17.0 °C 1011.1 hPa West 12.2 km/h 17.7 km/h 74 % 0.0 mm
12:09 22.0 °C 17.0 °C 1011.1 hPa WSW 13.7 km/h 19.1 km/h 74 % 0.0 mm
12:14 22.2 °C 18.0 °C 1011.1 hPa West 13.0 km/h 22.4 km/h 74 % 0.0 mm
12:19 22.6 °C 18.0 °C 1011.1 hPa WSW 14.8 km/h 22.7 km/h 74 % 0.0 mm
14:07 0.0 °C 18.0 °C 0.0 hPa West 10.1 km/h 10.1 km/h 0 % 0.0 mm
14:12 23.6 °C 19.0 °C 1011.1 hPa West 13.7 km/h 16.3 km/h 76 % 0.0 mm
14:17 24.4 °C 20.0 °C 1011.1 hPa SW 16.9 km/h 16.9 km/h 75 % 0.0 mm
14:22 24.0 °C 18.0 °C 1011.1 hPa West 11.1 km/h 20.6 km/h 70 % 0.0 mm
14:27 23.8 °C 18.0 °C 1011.1 hPa WSW 7.9 km/h 20.6 km/h 70 % 0.0 mm
14:32 23.8 °C 18.0 °C 1011.1 hPa SW 11.9 km/h 18.3 km/h 71 % 0.0 mm
14:37 24.0 °C 19.0 °C 1011.1 hPa WSW 7.9 km/h 17.2 km/h 71 % 0.0 mm
14:42 24.3 °C 18.0 °C 1011.1 hPa SW 9.7 km/h 15.1 km/h 69 % 0.0 mm
14:47 24.8 °C 19.0 °C 1011.1 hPa West 15.8 km/h 15.8 km/h 68 % 0.0 mm
14:53 24.5 °C 18.0 °C 1011.1 hPa WSW 6.1 km/h 15.8 km/h 67 % 0.0 mm
14:58 24.3 °C 18.0 °C 1010.0 hPa WSW 6.9 km/h 15.1 km/h 67 % 0.0 mm
15:03 24.2 °C 18.0 °C 1010.0 hPa WSW 9.0 km/h 12.6 km/h 68 % 0.0 mm
15:08 24.5 °C 19.0 °C 1010.0 hPa WSW 6.9 km/h 12.6 km/h 69 % 0.0 mm
15:13 24.6 °C 18.0 °C 1010.0 hPa SSW 8.7 km/h 13.7 km/h 67 % 0.0 mm
15:18 24.2 °C 18.0 °C 1010.0 hPa WSW 9.3 km/h 17.2 km/h 67 % 0.0 mm
15:23 23.9 °C 18.0 °C 1010.0 hPa SSW 12.2 km/h 22.7 km/h 67 % 0.0 mm
15:28 23.8 °C 18.0 °C 1010.0 hPa SW 12.6 km/h 22.7 km/h 68 % 0.0 mm
15:33 23.7 °C 18.0 °C 1010.0 hPa SW 14.0 km/h 16.6 km/h 68 % 0.0 mm
15:38 23.7 °C 18.0 °C 1010.0 hPa WSW 8.7 km/h 16.3 km/h 69 % 0.0 mm
15:43 23.5 °C 18.0 °C 1010.0 hPa SW 13.7 km/h 16.3 km/h 69 % 0.0 mm
15:48 23.4 °C 17.0 °C 1010.0 hPa SSW 12.2 km/h 19.1 km/h 69 % 0.0 mm
15:53 23.6 °C 18.0 °C 1010.0 hPa SSW 10.5 km/h 19.1 km/h 69 % 0.0 mm
15:58 24.0 °C 18.0 °C 1010.0 hPa WSW 6.1 km/h 19.1 km/h 69 % 0.0 mm
16:03 24.3 °C 18.0 °C 1010.0 hPa SW 13.0 km/h 15.1 km/h 68 % 0.0 mm
16:08 24.2 °C 18.0 °C 1010.0 hPa SW 9.3 km/h 16.6 km/h 68 % 0.0 mm
16:13 24.0 °C 18.0 °C 1010.0 hPa West 11.9 km/h 16.6 km/h 68 % 0.0 mm
16:18 23.9 °C 18.0 °C 1010.0 hPa SSW 11.6 km/h 15.4 km/h 68 % 0.0 mm
16:23 23.9 °C 18.0 °C 1010.0 hPa WSW 14.0 km/h 15.4 km/h 68 % 0.0 mm
16:28 23.9 °C 18.0 °C 1010.0 hPa WSW 8.7 km/h 14.0 km/h 69 % 0.0 mm
16:30 23.9 °C 18.0 °C 1010.0 hPa WSW 10.1 km/h 14.0 km/h 69 % 0.0 mm
16:35 23.8 °C 18.0 °C 1010.0 hPa WSW 10.5 km/h 16.3 km/h 68 % 0.0 mm
16:40 23.7 °C 18.0 °C 1009.0 hPa WSW 8.7 km/h 16.3 km/h 69 % 0.0 mm
16:45 24.1 °C 18.0 °C 1009.0 hPa WSW 8.7 km/h 15.8 km/h 68 % 0.0 mm
16:50 24.5 °C 19.0 °C 1009.0 hPa SW 7.2 km/h 12.6 km/h 69 % 0.0 mm
16:55 24.4 °C 18.0 °C 1009.0 hPa WSW 5.8 km/h 15.4 km/h 68 % 0.0 mm
17:00 24.5 °C 18.0 °C 1009.0 hPa WSW 9.0 km/h 15.4 km/h 67 % 0.0 mm
17:05 24.7 °C 18.0 °C 1009.0 hPa WSW 5.8 km/h 10.8 km/h 67 % 0.0 mm
17:10 24.6 °C 19.0 °C 1009.0 hPa WSW 7.9 km/h 10.1 km/h 68 % 0.0 mm
17:16 24.5 °C 19.0 °C 1009.0 hPa West 6.1 km/h 10.1 km/h 68 % 0.0 mm
17:21 24.2 °C 18.0 °C 1009.0 hPa West 4.7 km/h 8.7 km/h 68 % 0.0 mm
17:26 24.0 °C 18.0 °C 1009.0 hPa WNW 6.9 km/h 8.7 km/h 69 % 0.0 mm
17:31 24.2 °C 19.0 °C 1009.0 hPa Calm   7.9 km/h 70 % 0.0 mm
17:36 24.2 °C 18.0 °C 1009.0 hPa NW 4.0 km/h 7.6 km/h 69 % 0.0 mm
17:41 24.2 °C 18.0 °C 1009.0 hPa Calm   7.6 km/h 69 % 0.0 mm
17:46 24.1 °C 18.0 °C 1009.0 hPa Calm   2.1 km/h 69 % 0.0 mm
17:51 23.9 °C 18.0 °C 1009.0 hPa Calm     70 % 0.0 mm
17:56 23.9 °C 19.0 °C 1009.0 hPa Calm     71 % 0.0 mm
18:01 24.0 °C 19.0 °C 1009.0 hPa Calm     71 % 0.0 mm
18:06 24.0 °C 19.0 °C 1009.0 hPa Calm     71 % 0.0 mm
18:11 24.2 °C 19.0 °C 1008.0 hPa Calm     71 % 0.0 mm
18:16 24.6 °C 20.0 °C 1008.0 hPa Calm     72 % 0.0 mm
18:21 24.8 °C 19.0 °C 1008.0 hPa Calm     71 % 0.0 mm
18:26 24.8 °C 19.0 °C 1008.0 hPa Calm     71 % 0.0 mm
18:31 25.2 °C 20.0 °C 1008.0 hPa Calm     70 % 0.0 mm
18:36 26.0 °C 20.0 °C 1008.0 hPa Calm     70 % 0.0 mm
18:41 26.6 °C 21.0 °C 1007.0 hPa Calm     68 % 0.0 mm
18:46 26.1 °C 20.0 °C 1007.0 hPa Calm     67 % 0.0 mm
18:51 25.7 °C 19.0 °C 1007.0 hPa Calm     67 % 0.0 mm
18:56 25.3 °C 19.0 °C 1007.0 hPa Calm     68 % 0.0 mm
19:01 25.0 °C 19.0 °C 1007.0 hPa Calm     68 % 0.0 mm
19:06 24.7 °C 19.0 °C 1007.0 hPa Calm     68 % 0.0 mm
19:11 24.5 °C 19.0 °C 1007.0 hPa Calm     69 % 0.0 mm
19:16 24.3 °C 18.0 °C 1007.0 hPa Calm     69 % 0.0 mm
19:22 24.3 °C 19.0 °C 1007.0 hPa Calm     70 % 0.0 mm
19:27 24.2 °C 19.0 °C 1007.0 hPa Calm     70 % 0.0 mm
19:32 23.6 °C 19.0 °C 1007.0 hPa NNW 6.1 km/h 14.0 km/h 74 % 0.0 mm
19:37 23.2 °C 19.0 °C 1007.0 hPa North 2.6 km/h 14.0 km/h 76 % 0.0 mm
19:42 22.8 °C 19.0 °C 1007.0 hPa North 6.1 km/h 12.2 km/h 78 % 0.0 mm
19:47 22.6 °C 19.0 °C 1007.0 hPa NNW 9.0 km/h 12.2 km/h 80 % 0.0 mm
19:52 22.3 °C 19.0 °C 1007.0 hPa NNW 5.5 km/h 12.6 km/h 81 % 0.0 mm
19:57 22.1 °C 19.0 °C 1007.0 hPa North 6.9 km/h 12.6 km/h 81 % 0.0 mm
20:02 21.8 °C 19.0 °C 1007.0 hPa NE 6.4 km/h 12.2 km/h 83 % 0.0 mm
20:07 21.6 °C 19.0 °C 1007.0 hPa North 8.7 km/h 12.2 km/h 84 % 0.0 mm
20:12 21.4 °C 19.0 °C 1007.0 hPa Calm   11.6 km/h 84 % 0.0 mm
20:17 21.3 °C 19.0 °C 1007.0 hPa NNW 4.0 km/h 10.1 km/h 85 % 0.0 mm
20:22 21.2 °C 19.0 °C 1007.0 hPa Calm   7.9 km/h 86 % 0.0 mm
20:27 21.1 °C 19.0 °C 1008.0 hPa Calm   6.9 km/h 86 % 0.0 mm
20:32 21.0 °C 19.0 °C 1008.0 hPa Calm   5.5 km/h 87 % 0.0 mm
20:37 20.9 °C 19.0 °C 1008.0 hPa Calm   2.6 km/h 88 % 0.0 mm
20:42 20.8 °C 19.0 °C 1007.0 hPa Calm   2.6 km/h 88 % 0.0 mm
20:47 20.7 °C 19.0 °C 1007.0 hPa NNE 4.7 km/h 4.7 km/h 89 % 0.0 mm
20:52 20.6 °C 19.0 °C 1007.0 hPa Calm   4.7 km/h 89 % 0.0 mm
20:57 20.6 °C 19.0 °C 1007.0 hPa NNE 6.4 km/h 6.4 km/h 90 % 0.0 mm
21:03 20.4 °C 19.0 °C 1007.0 hPa Calm   6.4 km/h 90 % 0.0 mm
21:08 20.3 °C 19.0 °C 1007.0 hPa Calm   4.3 km/h 90 % 0.0 mm
21:13 20.2 °C 19.0 °C 1007.0 hPa Calm     90 % 0.0 mm
21:18 20.1 °C 18.0 °C 1007.0 hPa Calm     90 % 0.0 mm
21:22 20.0 °C 18.0 °C 1007.0 hPa Calm   3.2 km/h 90 % 0.0 mm
21:27 20.0 °C 19.0 °C 1007.0 hPa Calm   3.2 km/h 91 % 0.0 mm
21:29 19.9 °C 19.0 °C 1007.0 hPa Calm     91 % 0.0 mm
21:39 19.9 °C 19.0 °C 1007.0 hPa Calm     92 % 0.0 mm
21:44 19.9 °C 19.0 °C 1007.0 hPa Calm     92 % 0.0 mm
21:49 19.9 °C 19.0 °C 1007.0 hPa Calm     92 % 0.0 mm
21:54 19.8 °C 18.0 °C 1007.0 hPa Calm     92 % 0.0 mm
21:59 19.8 °C 19.0 °C 1007.0 hPa Calm     93 % 0.0 mm
22:04 19.8 °C 19.0 °C 1007.0 hPa Calm     93 % 0.0 mm
22:09 19.8 °C 19.0 °C 1007.0 hPa Calm     93 % 0.0 mm
22:14 19.7 °C 19.0 °C 1007.0 hPa Calm     93 % 0.0 mm
22:19 19.7 °C 19.0 °C 1007.0 hPa Calm     93 % 0.0 mm
22:24 19.7 °C 19.0 °C 1007.0 hPa Calm     93 % 0.0 mm
22:29 19.7 °C 19.0 °C 1007.0 hPa Calm     94 % 0.0 mm
22:34 19.7 °C 19.0 °C 1007.0 hPa Calm     94 % 0.0 mm
22:39 19.7 °C 19.0 °C 1007.0 hPa Calm     94 % 0.0 mm
22:44 19.6 °C 19.0 °C 1007.0 hPa Calm     94 % 0.0 mm
22:49 19.6 °C 19.0 °C 1007.0 hPa Calm     94 % 0.0 mm
22:54 19.6 °C 19.0 °C 1007.0 hPa Calm     94 % 0.0 mm
22:59 19.5 °C 19.0 °C 1007.0 hPa Calm     94 % 0.0 mm
23:04 19.4 °C 18.0 °C 1007.0 hPa Calm     94 % 0.0 mm
23:09 19.3 °C 18.0 °C 1007.0 hPa Calm     94 % 0.0 mm
23:14 19.2 °C 18.0 °C 1007.0 hPa Calm     94 % 0.0 mm
23:19 19.2 °C 18.0 °C 1007.0 hPa Calm     94 % 0.0 mm
23:25 19.2 °C 18.0 °C 1007.0 hPa Calm     94 % 0.0 mm
23:30 19.2 °C 18.0 °C 1007.0 hPa Calm     94 % 0.0 mm
23:35 19.1 °C 18.0 °C 1007.0 hPa Calm     94 % 0.0 mm
23:40 19.1 °C 18.0 °C 1007.0 hPa Calm     95 % 0.0 mm
23:45 19.1 °C 18.0 °C 1007.0 hPa Calm     95 % 0.0 mm
23:50 19.1 °C 18.0 °C 1007.0 hPa Calm     95 % 0.0 mm
23:55 19.1 °C 18.0 °C 1007.0 hPa Calm     95 % 0.0 mm
Le Gheer Warneton
Courtoisie de Weather Underground - 2 mb

Mise a jour : 16-12-17 12:06:11
Généré par Cumulus 1.9.4 (1099)